#timestamp,LO_Frequency,Hit,StdDev 
1506448815.4,286046999.8,N
1506448835.2,286047000.3,N
1506448855.1,286046998.9,N
1506448856.0,286046998.9,N
1506448875.8,286046997.8,N
1506448895.6,286046995.8,N
1506448915.5,286046993.8,N
1506448935.3,286046993.9,N
1506448955.1,286046994.7,N
1506448975.8,286046994.1,N
1506448995.7,286046993.4,N
1506449015.5,286046993.9,N
1506449035.3,286046993.6,N
1506449055.2,286046993.3,N
1506449075.9,286046994.6,N
1506449095.7,286046993.7,N
1506449115.6,286046991.7,Y
1506449135.4,286046997.4,P
1506449155.2,286046999.4,N
1506449175.1,286046999.1,N
1506449176.0,286046999.1,N
1506449195.8,286046996.6,N
1506449215.6,286046996.5,N
1506449235.5,286046996.6,N
1506449255.3,286046995.5,Y
1506449275.1,286046999.4,P
1506449295.9,286047000.9,N
1506449315.7,286047000.8,N
1506449335.5,286046999.1,N
1506449355.4,286046998.5,N
1506449375.2,286046999.9,N
1506449395.0,286047002.4,N
1506449395.9,286047002.4,N
1506449415.8,286046999.8,N
1506449435.6,286046999.0,N
1506449455.4,286046998.5,N
1506449475.2,286046999.3,N
1506449495.1,286046996.5,N
1506449496.0,286046996.5,N
1506449515.8,286046994.6,Y
1506449535.6,286046996.5,P
1506449555.5,286047004.1,N
1506449575.3,286047007.5,N
1506449595.1,286047009.2,N
1506449615.9,286047010.9,N
1506449635.7,286047014.8,N
1506449655.5,286047018.3,Y
1506449675.4,286047014.1,P
1506449695.2,286047018.7,P
1506449715.0,286047017.1,P
1506449715.9,286047017.1,Y
1506449735.8,286047002.2,P
1506449755.6,286047004.0,N
1506449775.4,286047006.3,N
1506449795.3,286047006.1,N
1506449815.1,286047009.2,N
1506449835.8,286047014.0,Y
1506449855.7,286047004.1,P
1506449875.5,286047006.0,P
1506449895.3,286047002.2,N
1506449915.2,286047002.2,N
1506449935.9,286047000.3,N
1506449955.7,286047001.1,N
1506449975.6,286047000.8,N
1506449995.4,286047001.0,N
1506450015.2,286047001.5,N
1506450035.1,286047001.9,N
1506450036.0,286047001.9,N
1506450055.8,286047002.0,N
1506450075.6,286047002.4,N
1506450095.5,286047004.3,N
1506450115.3,286047006.3,Y
1506450135.1,286047003.9,P
1506450155.9,286047000.8,N
1506450175.7,286047001.6,N
1506450195.5,286047003.2,N
1506450215.3,286047001.4,N
1506450235.2,286046999.9,N
1506450255.0,286047004.5,Y
1506450255.9,286047004.5,P
1506450275.8,286047003.4,N
1506450295.6,286047002.8,N
1506450315.4,286046999.0,N
1506450335.2,286046997.4,N
1506450355.1,286046996.2,N
1506450356.0,286046996.2,N
1506450375.8,286046991.7,N
1506450395.6,286046992.0,N
1506450415.5,286046987.0,N
1506450435.3,286046987.8,N
1506450455.1,286046986.0,N
1506450475.9,286046984.7,N
1506450495.7,286046983.6,N
1506450515.5,286046980.8,N
1506450535.4,286046981.3,N
1506450555.2,286046983.6,N
1506450575.0,286046979.4,N
1506450575.9,286046979.4,N
1506450595.8,286046981.8,N
1506450615.6,286046978.9,N
1506450635.4,286046981.0,N
1506450655.2,286046981.9,N
1506450675.1,286046979.6,N
1506450676.0,286046979.6,N
1506450695.8,286046979.5,N
1506450715.6,286046979.1,N
1506450735.5,286046981.4,N
1506450755.3,286046980.2,N
1506450775.1,286046978.3,N
1506450795.9,286046976.3,N
1506450815.7,286046976.9,N
1506450835.5,286046976.3,Y
1506450855.4,286046988.9,P
1506450875.2,286046990.2,P
1506450895.0,286046990.7,P
1506450895.9,286046990.7,Y
1506450915.8,286047002.2,P
1506450935.6,286047001.9,N
1506450955.4,286047002.8,N
1506450975.3,286047001.5,N
1506450995.1,286047001.7,N
1506450996.0,286047001.7,N
1506451015.8,286047002.0,N
1506451035.7,286046998.8,N
1506451055.5,286047000.1,N
1506451075.3,286047001.9,N
1506451095.2,286047002.8,N
1506451115.9,286047002.1,N
1506451135.7,286047001.3,N
1506451155.5,286047003.1,N
1506451175.4,286047005.1,N
1506451195.2,286047005.2,N
1506451215.0,286047003.4,N
1506451215.9,286047003.4,N
1506451235.8,286047005.9,N
1506451255.6,286047003.0,N
1506451275.4,286047003.6,N
1506451295.3,286047003.3,N
1506451315.1,286047004.8,N
1506451316.0,286047004.8,N
1506451335.8,286047004.3,N
1506451355.7,286047003.7,N
1506451375.5,286047003.4,N
1506451395.3,286047003.7,N
1506451415.2,286047003.7,N
1506451435.9,286046998.2,N
1506451455.7,286046997.3,N
1506451475.5,286046997.1,N
1506451495.4,286046999.2,N
1506451515.2,286046999.5,N
1506451535.0,286046998.7,N
1506451535.9,286046998.7,N
1506451555.8,286046998.2,N
1506451575.6,286046998.7,N
1506451595.4,286046998.1,N
1506451615.3,286047000.3,N
1506451635.1,286046998.6,N
1506451655.8,286046993.3,N
1506451675.7,286046994.3,N
1506451695.5,286046997.7,N
1506451715.3,286046999.2,N
1506451735.2,286047000.4,N
1506451755.9,286047003.0,N
1506451775.7,286047004.6,N
1506451795.6,286047010.0,Y
1506451815.4,286047009.8,P
1506451835.2,286047010.0,N
1506451855.1,286047010.9,N
1506451856.0,286047010.9,N
1506451875.8,286047009.8,N
1506451895.6,286047012.4,Y
1506451915.5,286047004.0,P
1506451935.3,286047004.8,N
1506451955.1,286047007.4,P
1506451975.9,286047006.8,Y
1506451995.7,286047002.6,P
1506452015.5,286047004.8,N
1506452035.4,286047005.9,P
1506452055.2,286047010.1,Y
1506452075.0,286047003.4,P
1506452075.9,286047003.4,P
1506452095.8,286047001.8,N
1506452115.6,286047004.0,Y
1506452135.4,286047000.2,P
1506452155.3,286047000.2,N
1506452175.1,286047000.7,N
1506452176.0,286047000.7,N
1506452195.8,286047001.0,N
1506452215.7,286047002.7,N
1506452235.5,286047002.5,N
1506452255.3,286047000.9,N
1506452275.1,286047001.2,N
1506452295.9,286047001.2,N
1506452315.7,286046999.8,N
1506452335.5,286047004.2,Y
1506452355.4,286047001.9,P
1506452375.2,286047004.5,P
1506452395.0,286047003.8,N
1506452395.9,286047003.8,N
